7QYKQ FWKI-FWKG

Flight info

Callsign 7QYKQ
Flight time 0h 22m
Altitude 12000
Route USUGU1A USUGU
Aircraft AT43/M-SDFGIRY/S

Departure

Time 2026-05-08 23:26
Airport Kamuzu International Airport (FWKI)

Arrival

Time 2026-05-08 23:49
Airport Kasungu Airport (FWKG)
Time Latitude Longitude Altitude Speed Heading
2026-05-08 23:05 -13.78278 33.77740 4023 ft 0 kts 131°
2026-05-08 23:24 -13.78286 33.77748 4021 ft 3 kts 142°
2026-05-08 23:24 -13.78321 33.77757 4023 ft 7 kts 172°
2026-05-08 23:24 -13.78344 33.77758 4023 ft 2 kts 216°
2026-05-08 23:25 -13.78402 33.77710 4023 ft 14 kts 221°
2026-05-08 23:25 -13.78476 33.77646 4023 ft 14 kts 219°
2026-05-08 23:25 -13.78540 33.77621 4024 ft 8 kts 158°
2026-05-08 23:25 -13.78589 33.77673 4024 ft 26 kts 130°
2026-05-08 23:26 -13.78860 33.78045 4022 ft 102 kts 135°
2026-05-08 23:26 -13.79446 33.78721 4317 ft 136 kts 127°
2026-05-08 23:26 -13.80071 33.79517 4935 ft 149 kts 123°
2026-05-08 23:26 -13.80707 33.80436 5437 ft 168 kts 114°
2026-05-08 23:27 -13.80663 33.81651 5905 ft 185 kts 63°
2026-05-08 23:27 -13.79676 33.82503 6507 ft 196 kts 23°
2026-05-08 23:27 -13.78335 33.82842 7112 ft 205 kts
2026-05-08 23:27 -13.76987 33.82363 7784 ft 212 kts 321°
2026-05-08 23:28 -13.76228 33.81076 8439 ft 215 kts 280°
2026-05-08 23:28 -13.76420 33.79586 9118 ft 214 kts 241°
2026-05-08 23:28 -13.77477 33.78566 9840 ft 211 kts 202°
2026-05-08 23:28 -13.78976 33.78423 9965 ft 228 kts 166°
2026-05-08 23:29 -13.80326 33.79292 10126 ft 236 kts 130°
2026-05-08 23:29 -13.80936 33.80829 10348 ft 240 kts 95°
2026-05-08 23:29 -13.80560 33.82513 10573 ft 243 kts 59°
2026-05-08 23:29 -13.79352 33.83677 10773 ft 244 kts 29°
2026-05-08 23:30 -13.77723 33.84095 10990 ft 242 kts 359°
2026-05-08 23:30 -13.76058 33.84324 11056 ft 245 kts 24°
2026-05-08 23:30 -13.74577 33.85197 11273 ft 246 kts 31°
2026-05-08 23:30 -13.73129 33.86137 11494 ft 247 kts 32°
2026-05-08 23:31 -13.71684 33.87102 11707 ft 247 kts 33°
2026-05-08 23:31 -13.70243 33.88079 11878 ft 249 kts 33°
2026-05-08 23:31 -13.68784 33.89077 11961 ft 255 kts 33°
2026-05-08 23:31 -13.67287 33.90106 11993 ft 260 kts 33°
2026-05-08 23:32 -13.65794 33.91136 12004 ft 264 kts 33°
2026-05-08 23:32 -13.64262 33.92196 12012 ft 267 kts 33°
2026-05-08 23:32 -13.62716 33.93264 12023 ft 269 kts 33°
2026-05-08 23:32 -13.61158 33.94343 12016 ft 270 kts 34°
2026-05-08 23:33 -13.59588 33.95429 12023 ft 272 kts 34°
2026-05-08 23:33 -13.58020 33.96515 12025 ft 273 kts 34°
2026-05-08 23:33 -13.56441 33.97607 12021 ft 274 kts 34°
2026-05-08 23:33 -13.54862 33.98700 12015 ft 274 kts 34°
2026-05-08 23:34 -13.53276 33.99799 12020 ft 274 kts 34°
2026-05-08 23:34 -13.51714 34.00882 12022 ft 275 kts 34°
2026-05-08 23:34 -13.50007 34.01793 12015 ft 274 kts 13°
2026-05-08 23:34 -13.48148 34.01736 12017 ft 274 kts 343°
2026-05-08 23:35 -13.46545 34.00733 12011 ft 270 kts 318°
2026-05-08 23:35 -13.45183 33.99392 12025 ft 271 kts 312°
2026-05-08 23:35 -13.43987 33.97903 12024 ft 270 kts 307°
2026-05-08 23:35 -13.42834 33.96359 12014 ft 271 kts 307°
2026-05-08 23:36 -13.41662 33.94837 12009 ft 271 kts 309°
2026-05-08 23:36 -13.40442 33.93355 12020 ft 272 kts 310°
2026-05-08 23:36 -13.39198 33.91892 12022 ft 272 kts 310°
2026-05-08 23:36 -13.37971 33.90437 12022 ft 272 kts 310°
2026-05-08 23:37 -13.36732 33.88956 12013 ft 273 kts 310°
2026-05-08 23:37 -13.35494 33.87474 12022 ft 273 kts 310°
2026-05-08 23:37 -13.34255 33.85992 12022 ft 273 kts 310°
2026-05-08 23:37 -13.33021 33.84512 12038 ft 273 kts 310°
2026-05-08 23:38 -13.31782 33.83030 12043 ft 273 kts 310°
2026-05-08 23:38 -13.30557 33.81566 12046 ft 273 kts 310°
2026-05-08 23:38 -13.29322 33.80087 12050 ft 273 kts 310°
2026-05-08 23:38 -13.28083 33.78605 12058 ft 273 kts 310°
2026-05-08 23:39 -13.26842 33.77121 12065 ft 274 kts 310°
2026-05-08 23:39 -13.25608 33.75645 12073 ft 274 kts 310°
2026-05-08 23:39 -13.24364 33.74159 12079 ft 274 kts 310°
2026-05-08 23:39 -13.23122 33.72676 12080 ft 274 kts 310°
2026-05-08 23:40 -13.21883 33.71196 12086 ft 274 kts 310°
2026-05-08 23:40 -13.20638 33.69710 12087 ft 274 kts 310°
2026-05-08 23:40 -13.19394 33.68222 12093 ft 274 kts 310°
2026-05-08 23:40 -13.18139 33.66724 11987 ft 280 kts 310°
2026-05-08 23:41 -13.16856 33.65191 11820 ft 286 kts 310°
2026-05-08 23:41 -13.15561 33.63649 11652 ft 290 kts 310°
2026-05-08 23:41 -13.14210 33.62037 11313 ft 294 kts 310°
2026-05-08 23:41 -13.12912 33.60489 11000 ft 289 kts 310°
2026-05-08 23:42 -13.11601 33.58922 10674 ft 286 kts 310°
2026-05-08 23:42 -13.10304 33.57374 10350 ft 285 kts 310°
2026-05-08 23:42 -13.09012 33.55833 10002 ft 285 kts 310°
2026-05-08 23:42 -13.07737 33.54319 9594 ft 267 kts 310°
2026-05-08 23:43 -13.06601 33.52961 9151 ft 238 kts 310°
2026-05-08 23:43 -13.05570 33.51703 8603 ft 224 kts 310°
2026-05-08 23:43 -13.04598 33.50500 8057 ft 218 kts 311°
2026-05-08 23:43 -13.03636 33.49314 7527 ft 215 kts 310°
2026-05-08 23:44 -13.02703 33.48123 6984 ft 213 kts 311°
2026-05-08 23:44 -13.01776 33.46947 6448 ft 211 kts 313°
2026-05-08 23:44 -13.00813 33.45803 5897 ft 211 kts 314°
2026-05-08 23:44 -12.99825 33.44705 5420 ft 205 kts 318°
2026-05-08 23:45 -12.98851 33.43697 5215 ft 192 kts 319°
2026-05-08 23:45 -12.97997 33.42692 5089 ft 185 kts 299°
2026-05-08 23:45 -12.97879 33.41419 5048 ft 182 kts 249°
2026-05-08 23:45 -12.98541 33.40402 5030 ft 169 kts 224°
2026-05-08 23:46 -12.99407 33.39710 5020 ft 149 kts 187°
2026-05-08 23:46 -13.00305 33.39891 5003 ft 126 kts 139°
2026-05-08 23:46 -13.01000 33.40434 4813 ft 125 kts 133°
2026-05-08 23:46 -13.01626 33.41011 4627 ft 120 kts 127°
2026-05-08 23:47 -13.02166 33.41651 4486 ft 114 kts 122°
2026-05-08 23:47 -13.02498 33.42378 4219 ft 118 kts 96°
2026-05-08 23:47 -13.02229 33.43172 3902 ft 119 kts 56°
2026-05-08 23:47 -13.02178 33.43913 4058 ft 110 kts 88°
2026-05-08 23:48 -13.02059 33.44647 3887 ft 100 kts 78°
2026-05-08 23:48 -13.01893 33.45351 3769 ft 102 kts 73°
2026-05-08 23:48 -13.01691 33.46044 3577 ft 101 kts 74°
2026-05-08 23:48 -13.01521 33.46660 3500 ft 50 kts 75°
2026-05-08 23:49 -13.01473 33.46831 3496 ft 27 kts 75°
2026-05-08 23:49 -13.01420 33.47013 3500 ft 22 kts 64°
2026-05-08 23:49 -13.01394 33.47121 3501 ft 10 kts 78°
2026-05-08 23:49 -13.01384 33.47143 3496 ft 4 kts 73°
2026-05-08 23:50 -13.01379 33.47174 3497 ft 3 kts 80°
2026-05-08 23:50 -13.01347 33.47279 3504 ft 28 kts 69°
2026-05-08 23:50 -13.01315 33.47392 3498 ft 1 kts 119°
2026-05-08 23:50 -13.01321 33.47378 3498 ft 9 kts 261°
2026-05-08 23:51 -13.01375 33.47184 3498 ft 41 kts 254°
2026-05-08 23:51 -13.01455 33.46889 3497 ft 30 kts 253°
2026-05-08 23:51 -13.01498 33.46741 3495 ft 17 kts 256°
2026-05-08 23:51 -13.01526 33.46642 3495 ft 12 kts 256°
2026-05-08 23:52 -13.01552 33.46586 3495 ft 5 kts 187°
2026-05-08 23:52 -13.01583 33.46590 3495 ft 7 kts 147°
2026-05-08 23:52 -13.01585 33.46617 3495 ft 5 kts 77°
2026-05-08 23:52 -13.01612 33.46641 3495 ft 4 kts 204°
2026-05-08 23:53 -13.01617 33.46628 3497 ft 5 kts 251°
2026-05-08 23:53 -13.01620 33.46618 3497 ft 0 kts 251°